Location: Woodhurst
(52.3667°N, 0.0667°W)
Time: 06:21:21
(UTC+00:00)

Cosmos 2058 Rocket - Pass Details

Date: 19 May 2025
Orbit: 604 x 634 km, 82.5° (Epoch: 18 June)

Event Time Altitude Azimuth Distance (km) Brightness Sun altitude
Rises 20:37:42 0° 180° (S) 2,918 6.1 -5.8°
Reaches altitude 10° 20:39:56 10° 177° (S) 2,013 5.3 -6.0°
Maximum altitude 20:44:21 64° 97° (E) 705 3.2 -6.5°
Drops below altitude 10° 20:48:46 10° 16° (NNE) 2,016 6.1 -6.9°
Sets 20:51:01 0° 14° (NNE) 2,923 7.0 -7.2°
